Location: Wien
(48.2082°N, 16.3738°E)
Time: 11:38:05
(UTC+01:00)

Courier 1B Rocket - Visible Passes

Search period start: 22 February 2024 00:00
Search period end: 03 March 2024 00:00
Orbit: 920 x 1202 km, 28.2° (Epoch: 21 February)

Date Brightness Start Highest point End Pass type
(mag) Time Alt. Az. Time Alt. Az. Time Alt. Az.
22 Feb 7.1 05:04:30 10° S 05:06:07 11° S 05:07:45 10° SSE visible
23 Feb 7.1 05:55:34 10° SSW 05:57:26 11° S 05:59:20 10° SSE visible
24 Feb 7.0 04:54:55 10° SSW 04:56:46 11° S 04:58:37 10° SSE visible
25 Feb 7.1 03:56:47 11° SSE 03:56:47 11° SSE 03:57:28 10° SSE visible
26 Feb 7.0 04:45:55 10° SSW 04:47:26 11° S 04:48:56 10° S visible
27 Feb 7.2 03:48:27 10° SSE 03:48:27 10° SSE 03:48:31 10° SSE visible
